Slidell, LA

12:53 AM CDT on September 01, 2016 (GMT -0500)
Slidell

Weather History for KASD - April, 2014

Change the Weather History Date:

Thursday, April 24, 2014

  Actual Average (KNEW) Record (KNEW)
Temperature  
Mean Temperature 68 °F 71 °F  
Max Temperature 82 °F 80 °F 90 °F (2002)
Min Temperature 55 °F 62 °F 44 °F (1968)
Degree Days  
Heating Degree Days 0 0  
Month to date heating degree days 32  
Since 1 July heating degree days 1277  
Cooling Degree Days 3 7  
Month to date cooling degree days 113  
Year to date cooling degree days 213  
Growing Degree Days 18 (Base 50)    
Moisture  
Dew Point 61 °F    
Average Humidity 81    
Maximum Humidity 100    
Minimum Humidity 54    
Precipitation  
Precipitation 0.00 in 0.16 in 2.71 in (1982)
Month to date precipitation 3.64  
Year to date precipitation 18.64  
Snow  
Snow 0.00 in - - ()
Month to date snowfall  
Since 1 July snowfall  
Snow Depth -    
Sea Level Pressure  
Sea Level Pressure 29.93 in    
Wind  
Wind Speed 3 mph (South)    
Max Wind Speed 14 mph    
Max Gust Speed 18 mph    
Visibility 7 miles    
Events Fog    
T = Trace of Precipitation, MM = Missing Value Source: NWS Daily Summary

Daily Weather History Graph

Daily Weather History Graph

Search for Another Location

Airport or City:

Trip Planner

Search our weather history database for the weather conditions in past years. The results will help you decide how hot, cold, wet, or windy it might be!

Date:

Astronomy

Apr. 24, 2014 Rise Set
Actual Time 6:22 AM CDT 7:32 PM CDT
Civil Twilight 5:57 AM CDT 7:57 PM CDT
Nautical Twilight 5:27 AM CDT 8:27 PM CDT
Astronomical Twilight 4:57 AM CDT 8:58 PM CDT
Moon 3:12 AM CDT (4/24) 3:07 PM CDT (4/24)
Length of Visible Light 14h 00m
Length of Day
13h 10m
Waning Crescent, 24% of the Moon is Illuminated
Apr 24
Waning Crescent
Apr 29
New
May 6
First Quarter
May 14
Full
May 21
Last Quarter

Hourly Weather History & Observations

Time (CDT) Temp. Heat Index Dew Point Humidity Pressure Visibility Wind Dir Wind Speed Gust Speed Precip Events Conditions
12:53 AM 63.0 °F - 59.0 °F 87% 29.92 in 10.0 mi Calm Calm - N/A   Clear
1:53 AM 62.1 °F - 57.9 °F 86% 29.92 in 10.0 mi Calm Calm - N/A   Clear
2:53 AM 60.1 °F - 57.0 °F 90% 29.91 in 10.0 mi Calm Calm - N/A   Clear
3:31 AM 59.0 °F - 55.9 °F 90% 29.91 in 9.0 mi Calm Calm - N/A   Scattered Clouds
3:40 AM 60.1 °F - 57.0 °F 90% 29.91 in 9.0 mi Calm Calm - N/A   Mostly Cloudy
3:53 AM 59.0 °F - 55.9 °F 90% 29.91 in 9.0 mi Calm Calm - N/A   Overcast
4:42 AM 57.0 °F - 55.0 °F 93% 29.91 in 2.5 mi Calm Calm - N/A   Overcast
4:53 AM 57.0 °F - 55.0 °F 93% 29.91 in 5.0 mi Calm Calm - N/A   Overcast
5:00 AM 57.0 °F - 55.0 °F 93% 29.91 in 2.0 mi Calm Calm - N/A   Overcast
5:03 AM 57.0 °F - 55.0 °F 93% 29.91 in 0.8 mi North 3.5 mph - N/A   Mist
5:20 AM 57.0 °F - 55.0 °F 93% 29.91 in 3.0 mi Calm Calm - N/A   Overcast
5:24 AM 57.0 °F - 55.0 °F 93% 29.91 in 1.8 mi Calm Calm - N/A   Overcast
5:49 AM 55.4 °F - 55.4 °F 100% 29.91 in 0.2 mi Calm Calm - N/A Fog Fog
5:53 AM 55.9 °F - 55.0 °F 97% 29.92 in 0.2 mi Calm Calm - N/A Fog Fog
6:53 AM 55.9 °F - 55.0 °F 97% 29.94 in 0.2 mi Calm Calm - N/A Fog Fog
7:53 AM 62.1 °F - 61.0 °F 96% 29.96 in 0.2 mi Calm Calm - N/A Fog Fog
8:04 AM 63.0 °F - 61.0 °F 93% 29.96 in 2.5 mi Calm Calm - N/A   Overcast
8:11 AM 64.0 °F - 62.1 °F 93% 29.96 in 7.0 mi Calm Calm - N/A   Mostly Cloudy
8:25 AM 64.9 °F - 64.0 °F 97% 29.97 in 5.0 mi Calm Calm - N/A   Scattered Clouds
8:53 AM 68.0 °F - 66.0 °F 93% 29.98 in 8.0 mi Calm Calm - N/A   Partly Cloudy
9:28 AM 73.0 °F - 64.9 °F 76% 29.99 in 10.0 mi SSE 3.5 mph - N/A   Mostly Cloudy
9:39 AM 72.0 °F - 63.0 °F 73% 29.99 in 10.0 mi South 3.5 mph - N/A   Scattered Clouds
9:53 AM 73.9 °F - 63.0 °F 68% 29.99 in 10.0 mi South 6.9 mph - N/A   Partly Cloudy
10:53 AM 77.0 °F - 62.1 °F 60% 29.99 in 10.0 mi South 10.4 mph - N/A   Partly Cloudy
11:53 AM 78.1 °F - 61.0 °F 56% 29.98 in 10.0 mi South 10.4 mph - N/A   Scattered Clouds
12:53 PM 79.0 °F - 62.1 °F 56% 29.96 in 10.0 mi South 10.4 mph - N/A   Partly Cloudy
1:53 PM 80.1 °F 81.2 °F 62.1 °F 54% 29.94 in 10.0 mi SSW 10.4 mph 17.3 mph N/A   Partly Cloudy
2:53 PM 80.1 °F 81.2 °F 62.1 °F 54% 29.93 in 10.0 mi SSW 5.8 mph 17.3 mph N/A   Mostly Cloudy
3:53 PM 81.0 °F 82.2 °F 63.0 °F 54% 29.92 in 10.0 mi South 10.4 mph 18.4 mph N/A   Scattered Clouds
4:53 PM 79.0 °F - 64.9 °F 62% 29.88 in 10.0 mi SSE 13.8 mph - N/A   Partly Cloudy
5:53 PM 78.1 °F - 66.0 °F 66% 29.85 in 10.0 mi SSE 13.8 mph - N/A   Partly Cloudy
6:53 PM 75.9 °F - 64.9 °F 69% 29.88 in 10.0 mi South 10.4 mph - N/A   Clear
7:53 PM 75.0 °F - 64.9 °F 71% 29.89 in 10.0 mi South 6.9 mph - N/A   Mostly Cloudy
8:12 PM 73.9 °F - 64.9 °F 73% 29.89 in 10.0 mi South 8.1 mph - N/A   Mostly Cloudy
8:25 PM 73.9 °F - 64.9 °F 73% 29.89 in 10.0 mi South 8.1 mph - N/A   Scattered Clouds
8:53 PM 73.0 °F - 66.0 °F 79% 29.90 in 10.0 mi South 10.4 mph - N/A   Clear
9:53 PM 73.0 °F - 66.0 °F 79% 29.92 in 10.0 mi South 10.4 mph - N/A   Clear
10:53 PM 72.0 °F - 66.0 °F 81% 29.93 in 10.0 mi SSW 5.8 mph - N/A   Partly Cloudy
11:53 PM 72.0 °F - 66.9 °F 84% 29.93 in 10.0 mi SSW 5.8 mph - N/A   Mostly Cloudy